Location: Newark
(13.6797°N, 8.5297°E)
Time: 06:16:11
(UTC+00:00)

Altair - Pass Details

Date: 01 February 2020
Orbit: 1502 x 1682 km, 47.2° (Epoch: 17 February)

Event Time Altitude Azimuth Distance (km) Brightness Sun altitude
Rises 11:12:26 0° 336° (NNW) 4,928 9.8 58.4°
Reaches altitude 10° 11:17:59 10° 360° (N) 3,933 9.4 58.7°
Maximum altitude 11:22:50 14° 29° (NNE) 3,585 9.3 58.9°
Drops below altitude 10° 11:27:38 10° 59° (ENE) 3,896 9.6 59.0°
Sets 11:33:00 0° 82° (E) 4,850 10.1 59.1°
